Home   Weather   Lagos   Past weeks

Flag for Nigeria Past Weather in Lagos, Nigeria — Yesterday and Last 2 Weeks

73 °F

Passing clouds.

Feels Like: 68 °F
Forecast: 74 / 89 °F
Wind: 6 mph from North

Location: Lagos / Ikeja

Current Time: Oct 22, 2016 at 4:44:51 AM

Latest Report: Oct 22, 2016 at 4:00 AM

Visibility: N/A

Pressure: 29.92 "Hg

Humidity: 100%

Dew Point: 73 °F

Location of LagosLocation

Past Weather in Lagos — Graph


Lagos Temperature Yesterday

Maximum temperature yesterday: 90 °F (at 3:00 PM)
Minimum temperature yesterday: 75 °F (at 10:00 PM)
Average temperature yesterday: 82 °F

High & Low Weather Summary for the Past Weeks

High91 °F (Oct 15, 3:00 PM)100% (Oct 7, 4:00 PM)30.04 "Hg (Oct 7, 4:00 PM)
Low72 °F (Oct 9, 9:00 AM)59% (Oct 18, 3:00 PM)29.80 "Hg (Oct 7, 4:00 PM)
Average80 °F86%29.91 "Hg
* Reported Oct 6 11:00 PM — Oct 21 10:00 PM, Lagos, Weather by CustomWeather, © 2016

Note: Actual official high and low records may vary slightly from our data, if they occured in-between our weather recording intervals... More about our weather records


Lagos Weather History for the Previous 24 Hours

Scroll right to see more
Time TempWeatherWind HumidityBarometerVisibility
10:00 PM
Fri, Oct 21
75 °FThunderstorms. Passing clouds.2 mph94%29.98 "Hg5 mi
8:00 PM81 °FStrong thunderstorms. Passing clouds.30 mph89%29.92 "Hg5 mi
7:00 PM82 °FThunderstorms. Passing clouds.5 mph79%29.92 "HgN/A
6:00 PM86 °FPartly sunny.8 mph75%29.86 "HgN/A
5:00 PM86 °FPartly sunny.5 mph75%29.86 "HgN/A
4:00 PM90 °FPartly sunny.10 mph67%29.86 "HgN/A
3:00 PM90 °FPartly sunny.5 mph67%29.86 "HgN/A
2:00 PM88 °FPartly sunny.7 mph70%29.89 "HgN/A
1:00 PM88 °FPartly sunny.8 mph70%29.92 "HgN/A
12:00 PM88 °FPartly sunny.6 mph70%29.95 "HgN/A
11:00 AM88 °FPartly sunny.3 mph70%29.95 "HgN/A
10:00 AM86 °FPartly sunny.2 mph75%29.98 "HgN/A
9:00 AM82 °FScattered clouds.No wind84%29.95 "Hg5 mi
8:00 AM79 °FScattered clouds.No wind94%29.95 "Hg4 mi
7:00 AM77 °FScattered clouds.No wind94%29.92 "Hg4 mi
6:00 AM77 °FPassing clouds.No wind94%29.92 "Hg4 mi
5:00 AM77 °FPassing clouds.2 mph94%29.89 "Hg5 mi
4:00 AM77 °FPassing clouds.No wind94%29.89 "Hg5 mi
Weather by CustomWeather, © 2016

See weather overviewHow to use our weather pages